軌道要素
Epoch 2023 Feb. 25.0 TT = JDT 2460000.5
T 2022 Aug. 2.29602 TT Rudenko
q 2.0608263 (2000.0) P Q
n 0.09112899 Peri. 4.45607 +0.84158930 +0.53505513
a 4.8906323 Node 322.88960 -0.49925108 +0.71849713
e 0.5786176 Incl. 7.02388 -0.20609660 +0.44438484
P 10.8
>From 179 observations 2000 July 29-2022 Nov. 19, mean residual 0".6.
|